Flag Weather past 2 weeks in Oss, Netherlands

Now
52 °F

Overcast.


Feels Like: 50 °F
Forecast: 40 / 51 °F
Wind: 6 mph from South

Location: Volkel

Current Time: Nov 23, 2014 at 9:32:01 PM

Latest Report: Nov 23, 2014 at 8:55 PM


Visibility: N/A

Pressure: 29.95 "Hg

Humidity: 88%

Dew point: 48 °F

Location of OssLocation

Historic Weather in Oss — Graph

°F

Oss temperature yesterday

Maximum temperature yesterday: 54 °F (at 1:55 PM)
Minimum temperature yesterday: 36 °F (at 3:25 AM)
Average temperature yesterday: 45 °F

Past Weeks' High & Low Weather Summary

 TemperatureHumidityPressure
High57 °F (Nov 13, 2:25 PM)100% (Nov 10, 5:59 AM)30.33 "Hg (Nov 10, 5:59 AM)
Low32 °F (Nov 21, 6:55 AM)63% (Nov 10, 1:55 PM)29.50 "Hg (Nov 15, 1:55 PM)
Average47 °F90%29.84 "Hg
* Reported Nov 8 8:25 PM — Nov 23 8:25 PM, Oss, Weather by CustomWeather, © 2014

Note: Actual official high and low records may vary slightly from our data, if they occured in-between our weather recording intervals... More about our weather records

Advertising

Oss weather history for previous 24 hours

 ConditionsComfort  
Time TempWeatherWind HumidityBarometerVisibility
8:25 PM
Nov 23
52 °FOvercast.6 mph88%29.95 "HgN/A
7:55 PM54 °FOvercast.6 mph82%29.92 "HgN/A
7:25 PM54 °FOvercast.5 mph82%29.95 "HgN/A
6:55 PM54 °FOvercast.7 mph82%29.95 "HgN/A
6:25 PM54 °FMostly cloudy.8 mph82%29.95 "HgN/A
5:55 PM54 °FOvercast.6 mph82%29.95 "HgN/A
5:25 PM54 °FOvercast.7 mph82%29.95 "HgN/A
4:55 PM54 °FPassing clouds.7 mph88%29.95 "HgN/A
4:25 PM55 °FScattered clouds.6 mph82%29.95 "HgN/A
3:55 PM57 °FCool.5 mph77%29.95 "HgN/A
3:25 PM57 °FCool.7 mph77%29.95 "HgN/A
2:55 PM57 °FCool.7 mph77%29.98 "HgN/A
2:25 PM57 °FCool.9 mph77%29.98 "HgN/A
1:55 PM57 °FCool.9 mph77%29.98 "HgN/A
1:25 PM57 °FCool.6 mph77%30.01 "HgN/A
12:55 PM55 °FCool.7 mph77%30.01 "HgN/A
12:25 PM55 °FCool.7 mph77%30.01 "HgN/A
11:55 AM54 °FPassing clouds.6 mph82%30.04 "HgN/A
11:25 AM54 °FPassing clouds.6 mph82%30.04 "HgN/A
10:55 AM52 °FCool.6 mph82%30.04 "HgN/A
10:25 AM50 °FCool.8 mph88%30.04 "HgN/A
9:55 AM50 °FCool.7 mph88%30.04 "HgN/A
9:25 AM48 °FCool.7 mph87%30.04 "HgN/A
8:55 AM46 °FFog.3 mph93%30.04 "Hg5 mi
8:25 AM46 °FFog.5 mph93%30.04 "Hg4 mi
7:55 AM45 °FFog.3 mph100%30.04 "Hg4 mi
7:25 AM45 °FFog.3 mph100%30.04 "Hg5 mi
6:55 AM46 °FFog.5 mph93%30.04 "Hg6 mi
6:25 AM48 °FFog.6 mph87%30.04 "Hg6 mi
5:55 AM48 °FOvercast.3 mph94%30.04 "HgN/A
5:25 AM48 °FFog.6 mph94%30.04 "Hg6 mi
4:55 AM48 °FFog.3 mph94%30.04 "Hg5 mi
4:25 AM48 °FMostly cloudy.2 mph94%30.07 "HgN/A
3:55 AM48 °FOvercast.3 mph94%30.04 "HgN/A
3:25 AM48 °FOvercast.3 mph94%30.07 "HgN/A
2:55 AM48 °FOvercast.3 mph87%30.07 "HgN/A
2:25 AM48 °FFog.3 mph87%30.07 "Hg6 mi
1:55 AM46 °FOvercast.3 mph93%30.07 "HgN/A
1:25 AM48 °FFog.3 mph87%30.04 "Hg6 mi
12:55 AM48 °FOvercast.3 mph94%30.07 "HgN/A
12:25 AM48 °FOvercast.3 mph94%30.07 "HgN/A
11:55 PM
Nov 22
48 °FFog.2 mph94%30.07 "Hg6 mi
11:25 PM48 °FFog.6 mph94%30.07 "Hg5 mi
10:55 PM48 °FFog.5 mph94%30.07 "Hg6 mi
10:25 PM48 °FFog.6 mph94%30.04 "Hg6 mi
9:55 PM48 °FFog.5 mph94%30.04 "Hg6 mi
9:25 PM48 °FFog.2 mph94%30.04 "Hg5 mi
Weather by CustomWeather, © 2014

See weather overviewHow to use our weather pages